Location: Caltech
(34.1382°N, 118.1253°W)
Time: 20:29:58
(UTC-08:00)

PANSAT - Visible Passes

Search period start: 22 November 2014 00:00
Search period end: 02 December 2014 00:00
Orbit: 489 x 495 km, 28.5° (Epoch: 22 November)

Date Brightness Start Highest point End Pass type
(mag) Time Alt. Az. Time Alt. Az. Time Alt. Az.
22 Nov 9.0 18:31:26 10° WSW 18:34:47 29° S 18:35:13 28° S visible
23 Nov 9.2 18:05:38 10° WSW 18:08:58 28° S 18:11:02 18° SE visible
24 Nov 9.3 17:39:50 10° WSW 17:43:08 28° S 17:46:26 10° SE visible
24 Nov 10.7 19:21:07 10° SW 19:21:20 11° SW 19:21:20 11° SW visible
25 Nov 9.4 17:14:01 10° WSW 17:17:18 27° S 17:20:34 10° SE visible
25 Nov 10.4 18:55:29 10° SW 18:56:53 12° SSW 18:57:21 11° SSW visible
26 Nov 10.4 18:29:55 10° SW 18:31:01 11° SSW 18:32:07 10° S visible
27 Nov 10.6 18:04:27 10° SSW 18:05:08 10° SSW 18:05:50 10° SSW visible
